Location: Unspecified
(33.6682°S, 0.0000°E)
Time: 20:29:47
(UTC+00:00)

Courier 1B - Pass Details

Date: 23 June 2019
Orbit: 963 x 1209 km, 28.3° (Epoch: 21 July)

Event Time Altitude Azimuth Distance (km) Brightness Sun altitude
Exits shadow 04:12:50 18° 356° (N) 2,460 9.6 -34.8°
Maximum altitude 04:15:36 22° 25° (NNE) 2,207 9.6 -34.2°
Drops below altitude 10° 04:20:51 10° 73° (ENE) 2,908 10.8 -33.2°
Sets 04:24:11 0° 87° (E) 3,821 11.7 -32.5°
